sat.trackr.live / text

‹ back to catalog

STARLINK-36288

NORAD 69164 · 2026-111S

PAYLOAD ACTIVE UNKNOWN

§ Identity

Operator
Country
US
Launch date
2026-05-21
Launch site
AFETR
Launch vehicle
Mass (kg)
RCS (m²)

Purposes: comms

External: N2YO · Heavens-Above · Gunter

§ Orbital elements

Epoch: 2026-09-19T19:31:04.343808Z

Period
93.85 min
Inclination
53.1585°
Eccentricity
0.0001026
Mean motion
15.34393914 rev/d
Perigee alt
462.0 km
Apogee alt
463.4 km
Semi-major
6,840.9 km
B*
9.0727e-4
RAAN
68.9128°
Arg perigee
83.4238°
Mean anomaly
276.6881°
Rev number
1,879

§ Raw data

STARLINK-362881 69164U 26111S   26262.81324472  .00030396  00000+0  90727-3 0  99942 69164  53.1585  68.9128 0001026  83.4238 276.6881 15.34393914 18791

JSON: /api/v1/satellites/69164 · /tle

For live sub-satellite position, see the globe view (requires WebGL).

§ Visibility from observer

Set your observer location to see the next 7 days of passes ≥ 10°. The values pass through the URL so the page stays shareable.

No JS? Fill the form by hand. The geolocation button needs JavaScript.